Harrisburg, IL

4:55 AM CDT on September 25, 2017 (GMT -0500)
Harrisburg-Raleigh

Weather History for KHSB - March, 2014

Change the Weather History Date:

Saturday, March 22, 2014

  Actual Average (KMWA) Record (KMWA)
Temperature  
Mean Temperature 47 °F -  
Max Temperature 56 °F 55 °F 79 °F (1975)
Min Temperature 38 °F 34 °F 19 °F (2002)
Degree Days  
Heating Degree Days 18    
Moisture  
Dew Point 32 °F    
Average Humidity 57    
Maximum Humidity 78    
Minimum Humidity 40    
Precipitation  
Precipitation 0.00 in - - ()
Sea Level Pressure  
Sea Level Pressure 30.15 in    
Wind  
Wind Speed 9 mph (North)    
Max Wind Speed 17 mph    
Max Gust Speed 23 mph    
Visibility 10 miles    
Events      
Averages and records for this station are not official NWS values.
T = Trace of Precipitation, MM = Missing Value Source: NWS Daily Summary

Daily Weather History Graph

Daily Weather History Graph

Search for Another Location

Airport or City:

Trip Planner

Search our weather history database for the weather conditions in past years. The results will help you decide how hot, cold, wet, or windy it might be!

Date:

Astronomy

Mar. 22, 2014 Rise Set
Actual Time 6:54 AM CDT 7:07 PM CDT
Civil Twilight 6:28 AM CDT 7:34 PM CDT
Nautical Twilight 5:57 AM CDT 8:04 PM CDT
Astronomical Twilight 5:26 AM CDT 8:36 PM CDT
Moon 12:22 AM CDT (3/22) 10:43 AM CDT (3/22)
Length of Visible Light 13h 05m
Length of Day
12h 13m
Waning Gibbous, 65% of the Moon is Illuminated
Mar 22
Waning Gibbous
Mar 23
Last Quarter
Mar 30
New
Apr 7
First Quarter
Apr 15
Full

Hourly Weather History & Observations

Time (CDT) Temp. Windchill Dew Point Humidity Pressure Visibility Wind Dir Wind Speed Gust Speed Precip Events Conditions
12:15 AM 55.4 °F - 40.1 °F 56% 29.93 in 10.0 mi WSW 3.5 mph - N/A   Clear
12:35 AM 53.8 °F - 39.9 °F 59% 29.95 in 10.0 mi WNW 4.6 mph - N/A   Clear
12:55 AM 56.5 °F - 38.5 °F 51% 29.96 in 10.0 mi North 12.7 mph 20.7 mph N/A   Clear
1:15 AM 54.7 °F - 35.2 °F 48% 29.97 in 10.0 mi NNW 10.4 mph - N/A   Clear
1:35 AM 53.4 °F - 35.1 °F 50% 29.98 in 10.0 mi North 5.8 mph - N/A   Clear
1:55 AM 51.8 °F - 34.9 °F 53% 29.99 in 10.0 mi NNW 5.8 mph - N/A   Clear
2:15 AM 50.9 °F - 35.1 °F 55% 29.99 in 10.0 mi NNW 4.6 mph - N/A   Clear
2:35 AM 50.2 °F - 34.9 °F 56% 30.00 in 10.0 mi NNW 5.8 mph - N/A   Clear
2:55 AM 50.0 °F - 35.1 °F 57% 30.00 in 10.0 mi NNW 4.6 mph - N/A   Clear
3:15 AM 49.8 °F - 35.6 °F 58% 30.01 in 10.0 mi NNW 8.1 mph - N/A   Clear
3:35 AM 50.9 °F - 36.0 °F 57% 30.02 in 10.0 mi NNW 11.5 mph - N/A   Clear
3:55 AM 50.2 °F - 36.5 °F 59% 30.03 in 10.0 mi NNW 10.4 mph - N/A   Clear
4:15 AM 49.5 °F - 35.6 °F 59% 30.03 in 10.0 mi NNW 10.4 mph - N/A   Clear
4:35 AM 48.2 °F - 34.7 °F 60% 30.04 in 10.0 mi North 6.9 mph - N/A   Clear
4:55 AM 47.3 °F - 34.9 °F 62% 30.04 in 10.0 mi North 6.9 mph - N/A   Clear
5:15 AM 46.0 °F 42.5 °F 35.1 °F 66% 30.06 in 10.0 mi NNW 6.9 mph - N/A   Clear
5:35 AM 46.4 °F 41.9 °F 35.1 °F 65% 30.07 in 10.0 mi North 9.2 mph - N/A   Clear
5:55 AM 44.6 °F 37.2 °F 35.1 °F 69% 30.09 in 10.0 mi North 17.3 mph 21.9 mph N/A   Clear
6:15 AM 43.0 °F 36.4 °F 35.1 °F 74% 30.11 in 10.0 mi North 12.7 mph 21.9 mph N/A   Clear
6:35 AM 41.2 °F 33.7 °F 34.7 °F 78% 30.12 in 10.0 mi North 13.8 mph 21.9 mph N/A   Clear
6:55 AM 39.9 °F 31.4 °F 31.8 °F 73% 30.14 in 10.0 mi North 16.1 mph 23.0 mph N/A   Clear
7:15 AM 39.2 °F 32.5 °F 30.7 °F 72% 30.15 in 10.0 mi North 10.4 mph 20.7 mph N/A   Clear
7:35 AM 38.8 °F 31.2 °F 30.7 °F 73% 30.15 in 10.0 mi North 12.7 mph 21.9 mph N/A   Clear
7:55 AM 38.8 °F 32.1 °F 31.1 °F 74% 30.16 in 10.0 mi North 10.4 mph - N/A   Clear
8:15 AM 39.2 °F 32.0 °F 31.1 °F 73% 30.17 in 10.0 mi North 11.5 mph - N/A   Clear
8:35 AM 39.4 °F 33.2 °F 31.6 °F 74% 30.18 in 10.0 mi North 9.2 mph - N/A   Clear
8:55 AM 39.7 °F 31.5 °F 31.3 °F 72% 30.19 in 10.0 mi North 15.0 mph 18.4 mph N/A   Clear
9:15 AM 40.3 °F 33.0 °F 30.9 °F 69% 30.19 in 10.0 mi North 12.7 mph 19.6 mph N/A   Clear
9:35 AM 42.1 °F 34.9 °F 31.1 °F 65% 30.19 in 10.0 mi North 13.8 mph 18.4 mph N/A   Clear
9:55 AM 43.2 °F 36.6 °F 30.7 °F 62% 30.20 in 10.0 mi North 12.7 mph 18.4 mph N/A   Clear
10:15 AM 44.1 °F 38.1 °F 31.1 °F 60% 30.22 in 10.0 mi North 11.5 mph 16.1 mph N/A   Scattered Clouds
10:35 AM 43.0 °F 36.8 °F 30.2 °F 61% 30.22 in 10.0 mi NNW 11.5 mph - N/A   Scattered Clouds
10:55 AM 44.2 °F 38.8 °F 30.4 °F 58% 30.22 in 10.0 mi North 10.4 mph 16.1 mph N/A   Scattered Clouds
11:15 AM 45.7 °F 41.0 °F 31.1 °F 57% 30.22 in 10.0 mi North 9.2 mph - N/A   Clear
11:35 AM 45.9 °F 40.4 °F 30.6 °F 55% 30.22 in 10.0 mi North 11.5 mph - N/A   Clear
11:55 AM 46.8 °F - 30.7 °F 54% 30.22 in 10.0 mi North 9.2 mph 16.1 mph N/A   Clear
12:15 PM 47.7 °F - 30.6 °F 52% 30.22 in 10.0 mi North 8.1 mph 16.1 mph N/A   Clear
12:35 PM 48.4 °F - 30.6 °F 50% 30.21 in 10.0 mi North 9.2 mph - N/A   Clear
12:55 PM 49.3 °F - 31.1 °F 50% 30.20 in 10.0 mi North 8.1 mph 18.4 mph N/A   Clear
1:15 PM 49.8 °F - 30.9 °F 48% 30.19 in 10.0 mi North 9.2 mph 18.4 mph N/A   Clear
1:35 PM 51.1 °F - 31.1 °F 46% 30.19 in 10.0 mi NNW 11.5 mph - N/A   Clear
1:55 PM 52.0 °F - 31.5 °F 46% 30.19 in 10.0 mi North 8.1 mph - N/A   Clear
2:15 PM 52.0 °F - 30.4 °F 44% 30.17 in 10.0 mi North 10.4 mph - N/A   Clear
2:35 PM 51.8 °F - 29.7 °F 43% 30.17 in 10.0 mi North 6.9 mph 16.1 mph N/A   Clear
2:55 PM 52.5 °F - 30.2 °F 42% 30.16 in 10.0 mi North 11.5 mph - N/A   Clear
3:15 PM 53.1 °F - 30.4 °F 42% 30.16 in 10.0 mi North 9.2 mph - N/A   Clear
3:35 PM 53.6 °F - 30.0 °F 41% 30.15 in 10.0 mi NNW 11.5 mph 17.3 mph N/A   Clear
3:55 PM 53.8 °F - 29.8 °F 40% 30.15 in 10.0 mi North 10.4 mph 18.4 mph N/A   Clear
4:15 PM 53.6 °F - 29.8 °F 40% 30.16 in 10.0 mi North 10.4 mph - N/A   Clear
4:35 PM 53.1 °F - 29.1 °F 40% 30.16 in 10.0 mi North 9.2 mph - N/A   Clear
4:55 PM 53.6 °F - 29.5 °F 40% 30.15 in 10.0 mi North 11.5 mph 18.4 mph N/A   Clear
5:15 PM 53.1 °F - 29.1 °F 40% 30.16 in 10.0 mi NNW 9.2 mph - N/A   Clear
5:35 PM 52.7 °F - 29.1 °F 40% 30.17 in 10.0 mi NNW 9.2 mph - N/A   Clear
5:55 PM 52.0 °F - 28.8 °F 41% 30.17 in 10.0 mi North 9.2 mph - N/A   Clear
6:15 PM 50.9 °F - 29.1 °F 43% 30.17 in 10.0 mi North 8.1 mph - N/A   Clear
6:35 PM 49.3 °F - 31.6 °F 51% 30.17 in 10.0 mi NNW 6.9 mph - N/A   Clear
6:55 PM 48.4 °F - 31.8 °F 53% 30.18 in 10.0 mi NNW 10.4 mph - N/A   Clear
7:15 PM 46.6 °F - 31.6 °F 56% 30.18 in 10.0 mi NNW 9.2 mph - N/A   Clear
7:35 PM 45.1 °F 40.8 °F 31.6 °F 59% 30.20 in 10.0 mi NW 8.1 mph - N/A   Clear
7:55 PM 45.3 °F 42.3 °F 31.8 °F 59% 30.19 in 10.0 mi NNW 5.8 mph - N/A   Clear
8:15 PM 45.0 °F 39.7 °F 31.8 °F 60% 30.21 in 10.0 mi North 10.4 mph - N/A   Clear
8:35 PM 44.8 °F 39.4 °F 31.3 °F 59% 30.22 in 10.0 mi North 10.4 mph 17.3 mph N/A   Clear
8:55 PM 43.9 °F 38.3 °F 31.1 °F 61% 30.22 in 10.0 mi North 10.4 mph - N/A   Clear
9:15 PM 43.0 °F 36.8 °F 30.2 °F 61% 30.22 in 10.0 mi North 11.5 mph - N/A   Clear
9:35 PM 42.8 °F 36.6 °F 30.6 °F 62% 30.22 in 10.0 mi North 11.5 mph 16.1 mph N/A   Clear
9:55 PM 41.9 °F 36.3 °F 30.2 °F 63% 30.23 in 10.0 mi North 9.2 mph 18.4 mph N/A   Clear
10:15 PM 41.2 °F 34.5 °F 30.2 °F 65% 30.24 in 10.0 mi North 11.5 mph - N/A   Clear
10:35 PM 40.6 °F 35.4 °F 30.2 °F 66% 30.24 in 10.0 mi North 8.1 mph - N/A   Clear
10:55 PM 40.3 °F 33.9 °F 29.8 °F 66% 30.25 in 10.0 mi North 10.4 mph 16.1 mph N/A   Clear
11:15 PM 40.1 °F 33.2 °F 29.7 °F 66% 30.26 in 10.0 mi North 11.5 mph - N/A   Scattered Clouds
11:35 PM 39.9 °F 33.9 °F 29.3 °F 66% 30.26 in 10.0 mi North 9.2 mph - N/A   Clear
11:55 PM 40.1 °F 34.1 °F 29.3 °F 65% 30.25 in 10.0 mi North 9.2 mph - N/A   Clear